NOAA-18
1 28654U 05018A   09182.79382125 -.00000097 00000-0 -29062-4 0 09593
2 28654 098.9063 125.9201 0013737 325.8357 034.1935 14.11267051212015
NOAA-19
1 33591U 09005A   09182.84790527 .00000015 00000-0 31969-4 0 01627
2 33591 098.7451 128.2272 0013789 197.6784 162.3931 14.10966984020501
HUBBLE
1 20580U 90037B   09182.21105557 .00001468 00000-0 10000-3 0 04145
2 20580 028.4715 010.7573 0003745 065.8123 294.2958 15.00816593851967
ISS
1 25544U 98067A   09182.83210648 -.00012261 00000-0 -79402-4 0 01398
2 25544 051.6394 231.7114 0007698 173.9945 162.7813 15.74119689608257
CO-58
1 28895U 05043F   09181.70427705 -.00000046 00000-0 39329-7 0 03386
2 28895 098.0569 071.9423 0017055 308.6022 051.3672 14.59777704195703
FALCON
1 30776U 07006E   09183.83951176  .00000212  00000-0  18359-4 0  6045
2 30776 035.4346 004.4431 0001496 006.0267 354.0467 15.03263538127451
MAST
1 31126U 07012K   09182.69739649 -.00000041  00000-0  14039-5 0  6294
2 31126 097.9871 236.8385 0093719 234.5531 124.6911 14.53503467117149
CAPE1
1 31130U 07012P   09183.85308816  .00000102  00000-0  34638-4 0  6389
2 31130 097.9895 236.0895 0101727 236.2457 122.9001 14.52068853116967
COMPASS
1 32787U 08021E   09183.83750027  .00000143  00000-0  25036-4 0  3982
2 32787 097.9421 247.5295 0015464 346.1395 013.9386 14.81621145 63761
AAUSAT2
1 32788U 08021F   09182.72361495 -.00000035 00000-0 23624-5 0 04015
2 32788 097.9399 246.4851 0015352 351.3245 008.7693 14.81742629063607
DO-64
1 32789U 08021G   09183.75833362  .00000534  00000-0  74474-4 0  4096
2 32789 097.9469 247.6843 0015595 345.9034 014.1740 14.81735569 63759
CO-66
1 32791U 08021J   09183.20671491  .00000285  00000-0  43179-4 0  3913
2 32791 097.9443 246.9380 0016209 346.5680 013.5093 14.81449014 63637
RS-30
1 32953U 08025A   09183.72430702  .00000010  00000-0  000000 0  3447
2 32953 082.5008 246.9504 0020136 141.8948 218.3568 12.43002084 50321
TACSAT-3
1 35001U 09028A   09182.94252033 .00001440 00000-0 42201-4 0 00539
2 35001 040.4542 152.4144 0025955 273.0360 086.7486 15.38875619006624
PHARMSAT
1 35002U 09028B   09182.98577738 .00001470 00000-0 41866-4 0 00467
2 35002 040.4672 151.8923 0028645 277.3848 082.3717 15.39646906006629
HAWKSAT1
1 35003U 09028C   09183.82151972  .00001113  00000-0  32874-4 0   418
2 35003 040.4694 146.7958 0029696 284.9339 074.8193 15.39899600  6761
CP6
1 35004U 09028D   09182.97403704 .00003168 00000-0 81903-4 0 00438
2 35004 040.4585 151.7652 0029251 280.8623 078.9027 15.40127158006626
AEROCUB3
1 35005U 09028E   09183.88716973  .00003398  00000-0  87922-4 0   358
2 35005 040.4736 146.4326 0029254 283.9219 075.8343 15.39957063  6768
